This is the latest recevied weather packets stored in our database for station/object KC2WGU. If no packets are shown the sender has not sent any weather packets the latest 10 day(s).
| Time | Temp. | Humidity | Pressure | Rain* | Wind** | Luminosity | Snow |
|---|---|---|---|---|---|---|---|
| 1788039016 | 23.33° C | 53% | 1020.3 hPa | 0 mm | - | 329 W/m² | - |
| 1788038416 | 23.33° C | 52% | 1020.3 hPa | 0 mm | - | 329 W/m² | - |
| 1788037817 | 23.33° C | 51% | 1020.2 hPa | 0 mm | - | 329 W/m² | - |
| 1788037217 | 23.33° C | 50% | 1020.3 hPa | 0 mm | - | 329 W/m² | - |
| 1788036616 | 23.33° C | 52% | 1020.4 hPa | 0 mm | - | 329 W/m² | - |
| 1788035417 | 23.33° C | 53% | 1020.5 hPa | 0 mm | - | 329 W/m² | - |
| 1788033616 | 23.33° C | 53% | 1020.7 hPa | 0 mm | - | 329 W/m² | - |
| 1788033016 | 23.33° C | 53% | 1021.1 hPa | 0 mm | - | 329 W/m² | - |
| 1788031216 | 22.78° C | 52% | 1021.3 hPa | 0 mm | - | 329 W/m² | - |
| 1788030617 | 22.22° C | 52% | 1021.4 hPa | 0 mm | - | 329 W/m² | - |
| 1788030017 | 23.33° C | 54% | 1021.4 hPa | 0 mm | - | 329 W/m² | - |
| 1788029417 | 22.78° C | 53% | 1021.5 hPa | 0 mm | - | 329 W/m² | - |
| 1788028816 | 22.78° C | 53% | 1021.6 hPa | 0 mm | - | 329 W/m² | - |
| 1788028216 | 21.67° C | 54% | 1021.6 hPa | 0 mm | - | 329 W/m² | - |
| 1788025817 | 22.22° C | 57% | 1022.1 hPa | 0 mm | - | 329 W/m² | - |
| 1788024617 | 22.22° C | 54% | 1022.1 hPa | 0 mm | - | 329 W/m² | - |
| 1788024016 | 22.22° C | 59% | 1022 hPa | 0 mm | - | 329 W/m² | - |
| 1788023416 | 21.67° C | 58% | 1022.2 hPa | 0 mm | - | 329 W/m² | - |
| 1788022816 | 21.67° C | 56% | 1022.4 hPa | 0 mm | - | 329 W/m² | - |
| 1788022217 | 21.67° C | 60% | 1022.4 hPa | 0 mm | - | 329 W/m² | - |
| 1788021617 | 21.67° C | 58% | 1022.5 hPa | 0 mm | - | 329 W/m² | - |
| 1788021017 | 21.11° C | 61% | 1022.5 hPa | 0 mm | - | 329 W/m² | - |
| 1788020417 | 21.11° C | 59% | 1022.9 hPa | 0 mm | - | 329 W/m² | - |
| 1788019822 | 20.56° C | 62% | 1022.9 hPa | 0 mm | - | 329 W/m² | - |
| 1788017416 | 20.56° C | 62% | 1023 hPa | 0 mm | - | 329 W/m² | - |
* Rain latest hour (hover to see other rain measurements)
** Current wind speed in m/s (hover to see current wind gust speed)